Location: Zilina
(0.0000°N, 18.7333°E)
Time: 19:31:57
(UTC+01:00)

CZ-4 R/B - Pass Details

Date: 19 February 2019
Orbit: 532 x 599 km, 97.8° (Epoch: 21 March)

Event Time Altitude Azimuth Distance (km) Brightness Sun altitude
Rises 18:48:29 0° 188° (S) 2,674 5.1 -12.2°
Reaches altitude 10° 18:50:50 10° 201° (SSW) 1,781 4.4 -12.7°
Maximum altitude 18:54:04 26° 258° (WSW) 1,067 3.7 -13.5°
Drops below altitude 10° 18:57:18 10° 316° (NW) 1,781 4.4 -14.3°
Sets 18:59:40 0° 329° (NNW) 2,675 5.1 -14.9°
